Content
SEND FEEDBACK

Daily
Averages
Monthly
Summary
Ireland

DUBLIN, IRELAND


Home > Europe > Ireland
Elevation: 279 feet     Latitude: 53 26N     Longitude: 006 15W

WEATHER
 
SELECT A DAY
Number of Records: 323,660;   Date Range: 7/1/96 - 9/15/14
 
SHARE

PRINT THIS DATA

[ ← Previous Day ]
WEATHER ALMANAC - FEBRUARY 19, 2013
[ Next Day → ]
[ °C ]   °F
Weather ElementAverageHighLow
Temperature39.3 °F46.4 °F (1:00 pm)30.2 °F (6:30 am)
Dewpoint34.7 °F37.4 °F (12:00 am)28.4 °F (6:30 am)
Humidity84 %100 % (7:30 am)64 % (12:00 pm)
Barometer30.06 in30.11 in (12:00 pm)30.04 in (2:00 pm)
Wind Speed9.2 mph13.8 mph (2:30 am)
Weather ElementAverage
Visibility6 mi
Wind DirectionESE (111.2 °)

Weather ElementTotal
Precipitation---
Heating Degree Days26.7 (Base 65)
Averaged from 51 records on February 19, 2013
WEATHER CONDITIONS BREAKOUT
WIND DIRECTION BREAKOUT
WEATHER BY HOUR - FEBRUARY 19, 2013
[ °C ]   °F
Local TimeTemperatureDewpointHumidityBarometerVisibilityWind DirectionWind SpeedGust SpeedPrecipitationEventsConditions
12:00 AM41.0 °F37.4 °F87 %30.06 in6.2 miSE (130°)10.4 mphPartly Cloudy
12:30 AM39.2 °F35.6 °F87 %30.06 in6.2 miESE (110°)9.2 mphPartly Cloudy
1:00 AM39.2 °F35.6 °F87 %30.06 in6.2 miESE (120°)10.4 mphPartly Cloudy
1:30 AM41.0 °F35.6 °F81 %30.06 in6.2 miESE (120°)9.2 mphPartly Cloudy
2:00 AM41.0 °F35.6 °F81 %30.06 in6.2 miESE (120°)12.7 mphPartly Cloudy
2:30 AM41.0 °F35.6 °F81 %30.06 in6.2 miSE (130°)13.8 mphPartly Cloudy
3:00 AM41.0 °F35.6 °F81 %30.06 in6.2 miSE (130°)13.8 mphPartly Cloudy
3:30 AM39.2 °F35.6 °F87 %30.06 in6.2 miSE (140°)12.7 mphPartly Cloudy
4:00 AM39.2 °F35.6 °F87 %30.06 in6.2 miSE (130°)12.7 mphPartly Cloudy
4:30 AM39.2 °F35.6 °F87 %30.06 in6.2 miSE (140°)11.5 mphPartly Cloudy
5:00 AM37.4 °F35.6 °F93 %30.06 in6.2 miSE (140°)8.1 mphPartly Cloudy
5:30 AM37.4 °F33.8 °F87 %30.06 in6.2 miVariable2.3 mphPartly Cloudy
6:00 AM33.8 °F32.0 °F93 %30.06 in6.2 miVariable2.3 mphPartly Cloudy
6:00 AM33.0 °F31.0 °F91 %30.08 in9.0 miESE (110°)4.5 mphScattered Clouds
6:30 AM30.2 °F28.4 °F93 %30.06 in6.2 miESE (110°)4.6 mphPartly Cloudy
7:00 AM32.0 °F30.2 °F93 %30.06 in6.2 miESE (110°)5.8 mphPartly Cloudy
7:30 AM30.2 °F30.2 °F100 %30.06 in6.2 miESE (110°)4.6 mphScattered Clouds
8:00 AM32.0 °F30.2 °F93 %30.09 in6.2 miESE (110°)8.1 mphScattered Clouds
8:30 AM35.6 °F33.8 °F93 %30.09 in6.2 miSE (130°)6.9 mphScattered Clouds
9:00 AM39.2 °F35.6 °F87 %30.09 in5.6 miSE (130°)6.9 mphScattered Clouds
9:30 AM41.0 °F35.6 °F81 %30.09 in6.2 miSE (130°)9.2 mphScattered Clouds
10:00 AM42.8 °F35.6 °F76 %30.09 in6.2 miESE (120°)10.4 mphScattered Clouds
10:30 AM42.8 °F35.6 °F76 %30.09 in6.2 miESE (120°)9.2 mphScattered Clouds
11:00 AM44.6 °F37.4 °F76 %30.09 in6.2 miESE (120°)11.5 mphScattered Clouds
11:30 AM44.6 °F37.4 °F76 %30.09 in6.2 miSE (130°)10.4 mphScattered Clouds
12:00 PM44.6 °F37.4 °F76 %30.09 in6.2 miESE (110°)11.5 mphScattered Clouds
12:00 PM45.0 °F37.0 °F64 %30.11 in12.0 miESE (110°)11.2 mphScattered Clouds
12:30 PM44.6 °F35.6 °F71 %30.06 in6.2 miESE (120°)11.5 mphScattered Clouds
1:00 PM46.4 °F35.6 °F66 %30.06 in6.2 miESE (120°)11.5 mphScattered Clouds
1:30 PM46.4 °F35.6 °F66 %30.06 in6.2 miESE (120°)13.8 mphScattered Clouds
2:00 PM46.4 °F37.4 °F71 %30.04 in6.2 miEast (100°)12.7 mphPartly Cloudy
2:30 PM46.4 °F35.6 °F66 %30.04 in6.2 miESE (110°)13.8 mphPartly Cloudy
3:00 PM44.6 °F35.6 °F71 %30.04 in6.2 miESE (110°)13.8 mphPartly Cloudy
3:30 PM44.6 °F37.4 °F76 %30.04 in6.2 miESE (120°)11.5 mphPartly Cloudy
4:00 PM44.6 °F37.4 °F76 %30.04 in6.2 miESE (120°)11.5 mphPartly Cloudy
4:30 PM44.6 °F35.6 °F71 %30.04 in6.2 miESE (120°)12.7 mphPartly Cloudy
5:00 PM42.8 °F35.6 °F76 %30.04 in6.2 miESE (120°)9.2 mphPartly Cloudy
5:30 PM41.0 °F35.6 °F81 %30.04 in6.2 miESE (110°)8.1 mphPartly Cloudy
6:00 PM41.0 °F35.6 °F81 %30.04 in6.2 miEast (100°)8.1 mphPartly Cloudy
6:00 PM40.0 °F34.0 °F72 %30.06 in9.0 miEast (100°)8.9 mphMist
6:30 PM35.6 °F32.0 °F87 %30.04 in6.2 miEast (100°)8.1 mphPartly Cloudy
7:00 PM33.8 °F32.0 °F93 %30.04 in5.0 miEast (100°)6.9 mphPartly Cloudy
7:30 PM35.6 °F35.6 °F100 %30.04 in5.6 miEast (100°)6.9 mphPartly Cloudy
8:00 PM35.6 °F33.8 °F93 %30.04 in5.6 miESE (110°)6.9 mphPartly Cloudy
8:30 PM33.8 °F32.0 °F93 %30.06 in5.6 miEast (100°)5.8 mphPartly Cloudy
9:00 PM35.6 °F33.8 °F93 %30.04 in5.0 miEast (90°)6.9 mphPartly Cloudy
9:30 PM33.8 °F33.8 °F100 %30.04 in3.1 miEast (90°)6.9 mphPartly Cloudy
10:00 PM32.0 °F32.0 °F100 %30.04 in2.5 miEast (100°)6.9 mphPartly Cloudy
10:30 PM33.8 °F32.0 °F93 %30.04 in2.5 miESE (120°)6.9 mphPartly Cloudy
11:00 PM37.4 °F35.6 °F93 %30.04 in2.5 miESE (120°)9.2 mphPartly Cloudy
11:30 PM35.6 °F35.6 °F100 %30.04 in2.5 miESE (110°)5.8 mphPartly Cloudy
Hourly data recorded from EIDW, located miles away from Dublin, Ireland







STORIES FROM OUR PARTNERS